| time (UTC) | temp C | wind direction | speed KPH | gust KPH | rain 1hr cm | rain 24hr cm | rain mn cm | humidity % | barometer mb |
| 20260502211035 | 19 | 230 | 3.2 | 3.2 | 0.00 | 0.00 | 0.00 | 48 | 1018.3 |
| 20260502204458 | 19 | 236 | 3.2 | 3.2 | 0.00 | 0.00 | 0.00 | 47 | 1018.4 |
| 20260502203445 | 20 | 234 | 1.6 | 3.2 | 0.00 | 0.00 | 0.00 | 47 | 1018.4 |
| 20260502202444 | 20 | 241 | 3.2 | 3.2 | 0.00 | 0.00 | 0.00 | 47 | 1018.5 |
| 20260502201443 | 20 | 236 | 1.6 | 3.2 | 0.00 | 0.00 | 0.00 | 47 | 1018.5 |
| 20260502200522 | 20 | 238 | 3.2 | 3.2 | 0.00 | 0.00 | 0.00 | 47 | 1018.6 |
| 20260502195458 | 20 | 237 | 3.2 | 3.2 | 0.00 | 0.00 | 0.00 | 47 | 1018.5 |
| 20260502194437 | 21 | 235 | 1.6 | 3.2 | 0.00 | 0.00 | 0.00 | 47 | 1018.5 |
| 20260502193434 | 21 | 239 | 1.6 | 3.2 | 0.00 | 0.00 | 0.00 | 46 | 1018.6 |
| 20260502192431 | 21 | 231 | 1.6 | 3.2 | 0.00 | 0.00 | 0.00 | 46 | 1018.7 |
| 20260502191430 | 21 | 237 | 1.6 | 3.2 | 0.00 | 0.00 | 0.00 | 46 | 1018.5 |
| 20260502190430 | 21 | 243 | 1.6 | 3.2 | 0.00 | 0.00 | 0.00 | 46 | 1018.7 |
| 20260502185426 | 22 | 242 | 1.6 | 3.2 | 0.00 | 0.00 | 0.00 | 46 | 1018.6 |
| 20260502184505 | 22 | 243 | 1.6 | 3.2 | 0.00 | 0.00 | 0.00 | 46 | 1018.5 |
| 20260502183421 | 22 | 244 | 1.6 | 3.2 | 0.00 | 0.00 | 0.00 | 46 | 1018.5 |
| 20260502182420 | 22 | 251 | 3.2 | 6.4 | 0.00 | 0.00 | 0.00 | 46 | 1018.4 |
| 20260502181417 | 22 | 260 | 3.2 | 6.4 | 0.00 | 0.00 | 0.00 | 46 | 1018.3 |
| 20260502180416 | 22 | 270 | 3.2 | 6.4 | 0.00 | 0.00 | 0.00 | 46 | 1018.3 |
| 20260502170404 | 23 | 270 | 3.2 | 9.7 | 0.00 | 0.00 | 0.00 | 46 | 1018.8 |
| 20260502163357 | 23 | 283 | 4.8 | 11.3 | 0.00 | 0.00 | 0.00 | 46 | 1019.1 |
| 20260502162406 | 23 | 270 | 4.8 | 9.7 | 0.00 | 0.00 | 0.00 | 46 | 1019.4 |
| 20260502161354 | 23 | 270 | 3.2 | 8.0 | 0.00 | 0.00 | 0.00 | 46 | 1019.5 |
| 20260502160352 | 23 | 270 | 3.2 | 9.7 | 0.00 | 0.00 | 0.00 | 46 | 1019.7 |
| 20260502151341 | 23 | 288 | 4.8 | 11.3 | 0.00 | 0.00 | 0.00 | 46 | 1020.4 |
| 20260502150340 | 23 | 282 | 3.2 | 11.3 | 0.00 | 0.00 | 0.00 | 46 | 1020.3 |
| 20260502130316 | 24 | 291 | 3.2 | 9.7 | 0.00 | 0.00 | 0.00 | 47 | 1021.7 |
| 20260502123312 | 25 | 315 | 3.2 | 9.7 | 0.00 | 0.00 | 0.00 | 47 | 1022.0 |
| 20260502122309 | 25 | 286 | 1.6 | 3.2 | 0.00 | 0.00 | 0.00 | 47 | 1022.1 |
| 20260502121306 | 26 | 287 | 3.2 | 8.0 | 0.00 | 0.00 | 0.00 | 47 | 1022.3 |
| 20260502120305 | 26 | 299 | 3.2 | 8.0 | 0.00 | 0.00 | 0.00 | 47 | 1022.4 |
| 20260502115305 | 26 | 270 | 1.6 | 6.4 | 0.00 | 0.00 | 0.00 | 47 | 1022.5 |
| 20260502113258 | 27 | 292 | 3.2 | 9.7 | 0.00 | 0.00 | 0.00 | 48 | 1022.7 |
| 20260502112305 | 27 | 296 | 3.2 | 9.7 | 0.00 | 0.00 | 0.00 | 50 | 1022.8 |
| 20260502111333 | 26 | 322 | 1.6 | 9.7 | 0.00 | 0.00 | 0.00 | 50 | 1022.9 |
| 20260502110251 | 26 | 297 | 1.6 | 4.8 | 0.00 | 0.00 | 0.00 | 50 | 1023.1 |
| 20260502105250 | 26 | 270 | 1.6 | 6.4 | 0.00 | 0.00 | 0.00 | 50 | 1023.1 |
| 20260502104308 | 25 | 305 | 3.2 | 6.4 | 0.00 | 0.00 | 0.00 | 50 | 1023.2 |
| 20260502103308 | 25 | 295 | 3.2 | 6.4 | 0.00 | 0.00 | 0.00 | 51 | 1023.3 |
| 20260502102306 | 25 | 324 | 3.2 | 9.7 | 0.00 | 0.00 | 0.00 | 51 | 1023.5 |
| 20260502101241 | 25 | 287 | 3.2 | 8.0 | 0.00 | 0.00 | 0.00 | 51 | 1023.5 |
| 20260502100239 | 24 | 307 | 3.2 | 11.3 | 0.00 | 0.00 | 0.00 | 52 | 1023.8 |
| 20260502091230 | 22 | 296 | 1.6 | 3.2 | 0.00 | 0.00 | 0.00 | 54 | 1024.3 |
| 20260502090228 | 22 | 315 | 3.2 | 8.0 | 0.00 | 0.00 | 0.00 | 54 | 1024.4 |
| 20260502071226 | 15 | 304 | 1.6 | 3.2 | 0.00 | 0.00 | 0.00 | 57 | 1024.7 |
| 20260502070226 | 15 | 270 | 1.6 | 3.2 | 0.00 | 0.00 | 0.00 | 57 | 1024.8 |
| 20260502065243 | 14 | 270 | 1.6 | 4.8 | 0.00 | 0.00 | 0.00 | 57 | 1024.9 |
| 20260502064202 | 14 | 270 | 1.6 | 3.2 | 0.00 | 0.00 | 0.00 | 57 | 1024.8 |
| 20260502063210 | 13 | 270 | 1.6 | 4.8 | 0.00 | 0.00 | 0.00 | 57 | 1024.9 |
| 20260502062226 | 13 | 270 | 1.6 | 1.6 | 0.00 | 0.00 | 0.00 | 57 | 1024.8 |
| 20260502061157 | 12 | 239 | 1.6 | 3.2 | 0.00 | 0.00 | 0.00 | 57 | 1024.8 |
| 20260502060151 | 12 | 270 | 1.6 | 1.6 | 0.00 | 0.00 | 0.00 | 57 | 1024.8 |
| 20260502055212 | 12 | 270 | 1.6 | 3.2 | 0.00 | 0.00 | 0.00 | 57 | 1024.8 |
| 20260502054209 | 11 | 270 | 1.6 | 1.6 | 0.00 | 0.00 | 0.00 | 57 | 1024.9 |
| 20260502053145 | 11 | 270 | 1.6 | 3.2 | 0.00 | 0.00 | 0.00 | 57 | 1024.8 |
| 20260502052155 | 11 | 270 | 1.6 | 3.2 | 0.00 | 0.00 | 0.00 | 57 | 1024.8 |
| 20260502051143 | 11 | 270 | 1.6 | 3.2 | 0.00 | 0.00 | 0.00 | 57 | 1024.9 |
| 20260502050141 | 10 | 270 | 1.6 | 3.2 | 0.00 | 0.00 | 0.00 | 57 | 1024.8 |
| 20260502045157 | 10 | 270 | 1.6 | 3.2 | 0.00 | 0.00 | 0.00 | 57 | 1024.7 |
| 20260502044135 | 10 | 270 | 1.6 | 3.2 | 0.00 | 0.00 | 0.00 | 57 | 1024.6 |
| 20260502043134 | 10 | 270 | 1.6 | 3.2 | 0.00 | 0.00 | 0.00 | 57 | 1024.7 |
| 20260502042133 | 10 | 318 | 1.6 | 3.2 | 0.00 | 0.00 | 0.00 | 57 | 1024.7 |
| 20260502041130 | 10 | 323 | 1.6 | 3.2 | 0.00 | 0.00 | 0.00 | 57 | 1024.8 |
| 20260502040129 | 10 | 306 | 1.6 | 3.2 | 0.00 | 0.00 | 0.00 | 57 | 1024.8 |
| 20260502035125 | 10 | 322 | 1.6 | 3.2 | 0.00 | 0.00 | 0.00 | 57 | 1024.8 |
| 20260502034123 | 10 | 315 | 1.6 | 3.2 | 0.00 | 0.00 | 0.00 | 56 | 1024.8 |
| 20260502033122 | 10 | 328 | 1.6 | 3.2 | 0.00 | 0.00 | 0.00 | 56 | 1024.7 |
| 20260502032140 | 11 | 325 | 1.6 | 3.2 | 0.00 | 0.00 | 0.00 | 56 | 1024.8 |
| 20260502031118 | 11 | 328 | 1.6 | 3.2 | 0.00 | 0.00 | 0.00 | 56 | 1024.7 |
| 20260502030117 | 11 | 318 | 1.6 | 3.2 | 0.00 | 0.00 | 0.00 | 56 | 1024.6 |
| 20260502025115 | 11 | 315 | 1.6 | 3.2 | 0.00 | 0.00 | 0.00 | 56 | 1024.6 |
| 20260502024112 | 11 | 321 | 1.6 | 3.2 | 0.00 | 0.00 | 0.00 | 56 | 1024.7 |
| 20260502023110 | 11 | 321 | 1.6 | 3.2 | 0.00 | 0.00 | 0.00 | 56 | 1024.7 |
| 20260502022107 | 11 | 228 | 1.6 | 3.2 | 0.00 | 0.00 | 0.00 | 56 | 1024.7 |
| 20260502021108 | 11 | 222 | 1.6 | 3.2 | 0.00 | 0.00 | 0.00 | 56 | 1024.8 |
| 20260502020105 | 12 | 231 | 1.6 | 3.2 | 0.00 | 0.00 | 0.00 | 56 | 1024.8 |
| 20260502015123 | 12 | 231 | 1.6 | 3.2 | 0.00 | 0.00 | 0.00 | 56 | 1024.8 |
| 20260502014100 | 12 | 225 | 1.6 | 3.2 | 0.00 | 0.00 | 0.00 | 55 | 1024.7 |
| 20260502013059 | 12 | 225 | 1.6 | 3.2 | 0.00 | 0.00 | 0.00 | 55 | 1024.7 |
| 20260502012056 | 12 | 225 | 1.6 | 3.2 | 0.00 | 0.00 | 0.00 | 55 | 1024.9 |
| 20260502011055 | 12 | 227 | 1.6 | 3.2 | 0.00 | 0.00 | 0.00 | 55 | 1024.8 |
| 20260502010053 | 12 | 227 | 1.6 | 3.2 | 0.00 | 0.00 | 0.00 | 55 | 1024.9 |
| 20260502005049 | 12 | 227 | 1.6 | 3.2 | 0.00 | 0.00 | 0.00 | 55 | 1024.9 |
| 20260502004048 | 13 | 230 | 1.6 | 3.2 | 0.00 | 0.00 | 0.00 | 55 | 1025.0 |
| 20260502003046 | 13 | 225 | 1.6 | 3.2 | 0.00 | 0.00 | 0.00 | 55 | 1024.9 |
| 20260502002054 | 13 | 227 | 1.6 | 3.2 | 0.00 | 0.00 | 0.00 | 54 | 1024.9 |
| 20260502001043 | 13 | 227 | 1.6 | 3.2 | 0.00 | 0.00 | 0.00 | 54 | 1024.9 |
| 20260502000040 | 13 | 227 | 1.6 | 3.2 | 0.00 | 0.00 | 0.00 | 54 | 1025.0 |
| 20260501235049 | 13 | 225 | 1.6 | 3.2 | 0.00 | 0.00 | 0.00 | 54 | 1025.0 |
| 20260501234036 | 14 | 225 | 1.6 | 3.2 | 0.00 | 0.00 | 0.00 | 54 | 1025.1 |
| 20260501233055 | 14 | 225 | 1.6 | 3.2 | 0.00 | 0.00 | 0.00 | 54 | 1025.1 |